• In Hungary
  • List of Countries
  • For 7 days
  • Water Temperature
  • Satellite Maps
  • Weather Map
  • News
  • Weather Widgets
  • user-avatar
    Login

    Hourly Weather Nagpur

    Today, 18 November, Saturday

    Time Temperature Precipitation Wind Pressure Humidity
    00:00 +24°C° 0 mm 1 mps 732 mmHg 77%
    01:00 +23°C° 0 mm 1 mps 732 mmHg 78%
    02:00 +23°C° 0 mm 1 mps 732 mmHg 80%
    03:00 +23°C° 0 mm 1 mps 732 mmHg 80%
    04:00 +23°C° 0 mm 1 mps 732 mmHg 81%
    05:00 +22°C° 0 mm 1 mps 732 mmHg 89%
    06:00 +24°C° 0 mm 1 mps 732 mmHg 84%
    07:00 +25°C° 0 mm 1 mps 732 mmHg 80%
    08:00 +26°C° 0 mm 1 mps 733 mmHg 75%
    09:00 +28°C° 0 mm 1 mps 733 mmHg 67%
    10:00 +29°C° 0 mm 1 mps 733 mmHg 59%
    11:00 +31°C° 0 mm 2 mps 733 mmHg 52%
    12:00 +32°C° 0 mm 1 mps 733 mmHg 49%
    13:00 +32°C° 0 mm 1 mps 732 mmHg 45%
    14:00 +33°C° 0 mm 1 mps 732 mmHg 42%
    15:00 +31°C° 0 mm 1 mps 731 mmHg 45%
    16:00 +30°C° 0 mm 1 mps 731 mmHg 49%
    17:00 +29°C° 0 mm 1 mps 731 mmHg 52%
    18:00 +28°C° 0 mm 1 mps 732 mmHg 54%
    19:00 +27°C° 0 mm 1 mps 732 mmHg 55%
    20:00 +26°C° 0 mm 1 mps 732 mmHg 57%
    21:00 +26°C° 0 mm 1 mps 732 mmHg 59%
    22:00 +25°C° 0 mm 1 mps 732 mmHg 62%
    23:00 +25°C° 0 mm 1 mps 732 mmHg 64%

    Tomorrow, 19 November, Sunday

    Time Temperature Precipitation Wind Pressure Humidity
    00:00 +25°C° 0 mm 1 mps 732 mmHg 66%
    01:00 +24°C° 0 mm 1 mps 732 mmHg 68%
    02:00 +24°C° 0 mm 1 mps 732 mmHg 69%
    03:00 +23°C° 0 mm 1 mps 732 mmHg 70%
    04:00 +23°C° 0 mm 1 mps 732 mmHg 72%
    05:00 +23°C° 0 mm 1 mps 732 mmHg 73%
    06:00 +24°C° 0 mm 2 mps 733 mmHg 70%
    07:00 +25°C° 0 mm 2 mps 733 mmHg 66%
    08:00 +27°C° 0 mm 2 mps 734 mmHg 63%
    09:00 +28°C° 0 mm 2 mps 734 mmHg 57%
    10:00 +30°C° 0 mm 2 mps 734 mmHg 51%
    11:00 +32°C° 0 mm 1 mps 734 mmHg 45%
    12:00 +32°C° 0 mm 1 mps 733 mmHg 42%
    13:00 +33°C° 0 mm 1 mps 733 mmHg 39%
    14:00 +32°C° 0 mm 0 mps 732 mmHg 36%
    15:00 +30°C° 0 mm 0 mps 732 mmHg 40%
    16:00 +29°C° 0 mm 0 mps 732 mmHg 43%
    17:00 +29°C° 0 mm 1 mps 732 mmHg 46%
    18:00 +28°C° 0 mm 1 mps 732 mmHg 48%
    19:00 +28°C° 0 mm 1 mps 733 mmHg 50%
    20:00 +27°C° 0 mm 1 mps 734 mmHg 52%
    21:00 +26°C° 0 mm 2 mps 734 mmHg 54%
    22:00 +26°C° 0 mm 3 mps 734 mmHg 56%
    23:00 +25°C° 0 mm 3 mps 734 mmHg 58%

    Day after tomorrow, 20 November, Monday

    Time Temperature Precipitation Wind Pressure Humidity
    00:00 +25°C° 0 mm 3 mps 733 mmHg 58%
    01:00 +24°C° 0 mm 3 mps 733 mmHg 59%
    02:00 +24°C° 0 mm 3 mps 733 mmHg 59%
    03:00 +24°C° 0 mm 3 mps 733 mmHg 59%
    04:00 +22°C° 0 mm 3 mps 733 mmHg 59%
    05:00 +22°C° 0 mm 3 mps 733 mmHg 59%
    06:00 +24°C° 0 mm 3 mps 734 mmHg 57%
    07:00 +25°C° 0 mm 4 mps 735 mmHg 54%
    08:00 +26°C° 0 mm 4 mps 735 mmHg 52%
    09:00 +28°C° 0 mm 4 mps 735 mmHg 48%
    10:00 +30°C° 0 mm 4 mps 735 mmHg 45%
    11:00 +33°C° 0 mm 3 mps 735 mmHg 41%
    12:00 +33°C° 0 mm 3 mps 734 mmHg 39%
    13:00 +33°C° 0 mm 3 mps 733 mmHg 37%
    14:00 +34°C° 0 mm 2 mps 732 mmHg 35%
    15:00 +31°C° 0 mm 2 mps 732 mmHg 38%
    16:00 +30°C° 0 mm 2 mps 732 mmHg 41%
    17:00 +28°C° 0 mm 2 mps 732 mmHg 44%
    18:00 +28°C° 0 mm 2 mps 733 mmHg 45%
    19:00 +27°C° 0 mm 3 mps 733 mmHg 46%
    20:00 +26°C° 0 mm 3 mps 734 mmHg 47%
    21:00 +25°C° 0 mm 3 mps 734 mmHg 47%
    22:00 +25°C° 0 mm 3 mps 734 mmHg 48%
    23:00 +24°C° 0 mm 3 mps 734 mmHg 48%

    21 November, Tuesday

    Time Temperature Precipitation Wind Pressure Humidity
    00:00 +22°C° 0 mm 3 mps 734 mmHg 49%
    01:00 +22°C° 0 mm 3 mps 733 mmHg 50%
    02:00 +22°C° 0 mm 3 mps 733 mmHg 50%
    03:00 +21°C° 0 mm 3 mps 733 mmHg 51%
    04:00 +21°C° 0 mm 3 mps 733 mmHg 52%
    05:00 +20°C° 0 mm 3 mps 733 mmHg 53%
    06:00 +21°C° 0 mm 3 mps 734 mmHg 51%
    07:00 +24°C° 0 mm 3 mps 735 mmHg 49%
    08:00 +25°C° 0 mm 3 mps 735 mmHg 47%
    09:00 +27°C° 0 mm 3 mps 735 mmHg 43%
    10:00 +29°C° 0 mm 3 mps 735 mmHg 38%
    11:00 +31°C° 0 mm 3 mps 735 mmHg 33%
    12:00 +31°C° 0 mm 2 mps 734 mmHg 32%
    13:00 +32°C° 0 mm 2 mps 733 mmHg 31%
    14:00 +32°C° 0 mm 2 mps 732 mmHg 30%
    15:00 +31°C° 0 mm 2 mps 732 mmHg 34%
    16:00 +29°C° 0 mm 1 mps 732 mmHg 37%
    17:00 +28°C° 0 mm 1 mps 732 mmHg 41%
    18:00 +27°C° 0 mm 2 mps 732 mmHg 42%
    19:00 +26°C° 0 mm 2 mps 733 mmHg 43%
    20:00 +25°C° 0 mm 2 mps 734 mmHg 44%
    21:00 +24°C° 0 mm 2 mps 734 mmHg 45%
    22:00 +23°C° 0 mm 2 mps 734 mmHg 45%
    23:00 +23°C° 0 mm 2 mps 734 mmHg 46%

    22 November, Wednesday

    Time Temperature Precipitation Wind Pressure Humidity
    00:00 +21°C° 0 mm 2 mps 733 mmHg 46%
    01:00 +21°C° 0 mm 2 mps 733 mmHg 46%
    02:00 +20°C° 0 mm 2 mps 732 mmHg 47%
    03:00 +20°C° 0 mm 2 mps 733 mmHg 47%
    04:00 +20°C° 0 mm 2 mps 733 mmHg 48%
    05:00 +19°C° 0 mm 2 mps 733 mmHg 48%
    06:00 +21°C° 0 mm 2 mps 733 mmHg 47%
    07:00 +23°C° 0 mm 2 mps 734 mmHg 46%
    08:00 +24°C° 0 mm 2 mps 735 mmHg 44%
    09:00 +26°C° 0 mm 2 mps 735 mmHg 40%
    10:00 +28°C° 0 mm 2 mps 734 mmHg 35%
    11:00 +30°C° 0 mm 2 mps 734 mmHg 31%
    12:00 +31°C° 0 mm 2 mps 733 mmHg 30%
    13:00 +31°C° 0 mm 2 mps 732 mmHg 29%
    14:00 +32°C° 0 mm 2 mps 732 mmHg 28%
    15:00 +30°C° 0 mm 2 mps 732 mmHg 32%
    16:00 +29°C° 0 mm 1 mps 732 mmHg 36%
    17:00 +27°C° 0 mm 1 mps 732 mmHg 40%
    18:00 +26°C° 0 mm 2 mps 732 mmHg 41%
    19:00 +25°C° 0 mm 2 mps 733 mmHg 43%
    20:00 +24°C° 0 mm 2 mps 734 mmHg 45%
    21:00 +23°C° 0 mm 2 mps 734 mmHg 45%
    22:00 +23°C° 0 mm 2 mps 733 mmHg 46%
    23:00 +21°C° 0 mm 2 mps 733 mmHg 47%

    23 November, Thursday

    Time Temperature Precipitation Wind Pressure Humidity
    00:00 +20°C° 0 mm 2 mps 733 mmHg 47%
    01:00 +20°C° 0 mm 2 mps 732 mmHg 47%
    02:00 +20°C° 0 mm 1 mps 732 mmHg 48%
    03:00 +20°C° 0 mm 1 mps 732 mmHg 48%
    04:00 +20°C° 0 mm 1 mps 732 mmHg 48%
    05:00 +19°C° 0 mm 1 mps 733 mmHg 49%
    06:00 +21°C° 0 mm 1 mps 733 mmHg 47%
    07:00 +22°C° 0 mm 1 mps 734 mmHg 45%
    08:00 +23°C° 0 mm 1 mps 735 mmHg 43%
    09:00 +26°C° 0 mm 1 mps 735 mmHg 38%
    10:00 +28°C° 0 mm 1 mps 734 mmHg 33%
    11:00 +30°C° 0 mm 1 mps 734 mmHg 29%
    12:00 +31°C° 0 mm 2 mps 733 mmHg 28%
    13:00 +31°C° 0 mm 2 mps 733 mmHg 27%
    14:00 +32°C° 0 mm 2 mps 732 mmHg 25%
    15:00 +30°C° 0 mm 2 mps 732 mmHg 29%
    16:00 +28°C° 0 mm 2 mps 732 mmHg 33%
    17:00 +27°C° 0 mm 1 mps 732 mmHg 37%
    18:00 +26°C° 0 mm 2 mps 733 mmHg 38%
    19:00 +25°C° 0 mm 2 mps 733 mmHg 39%
    20:00 +23°C° 0 mm 2 mps 734 mmHg 41%
    21:00 +23°C° 0 mm 2 mps 734 mmHg 40%
    22:00 +21°C° 0 mm 2 mps 733 mmHg 40%
    23:00 +20°C° 0 mm 2 mps 733 mmHg 40%
    Show more